Погода в Тюменском

Россия / Краснодарский край     44°10′51″N   38°58′32″E
темп.,
°C
ветер,
м/с
пор.,
м/с
влажн.,
%
обл.,
%
осадки,
мм/ч
давл.,
гПа
погр.,
м
9 марта, вт
вт900:00+2ююз597599 0.1 1017919
03:00+2ююз51078100 0.4 1017959
06:00+2ююз5987100 1.6 1017810
09:00+2ююз5994100 3.9 1017646
12:00+3юз598399 2.0 1018931
15:00+3зюз369299 5.1 1019656
18:00+2юз248490 0.4 1020189
21:00+1ююз128977 0.8 1021101
10 марта, ср
ср1000:00+1всв019098 0.4 102261
03:000ссв229199 0.6 102385
06:00−2св3494100 0.5 1023159
09:00−1св3486100 1.1 1024205
12:00+2св3385100 0.4 1023394
15:00+3св3378100 0.5 1021447
18:00+1св4686100 0.0 1019330
21:00−1св4686100 0.0 1018223
11 марта, чт
чт1100:00−1св4686100 0.0 1016192
03:00−1св4686100 0.0 1016181
06:00−1св4788100 0.1 1015300
09:00−1св5989100 0.9 1015391
12:000св51089100 1.7 1014526
15:000св91683100 2.6 1013773
18:00−2св122082100 0.3 1013881
21:00−4св132178100 0.4 1014833
12 марта, пт
пт1200:00−5св132278100 0.1 1015933
03:00−6св142276100 0.2 10151001
06:00−6св13237494 0.0 1017988
09:00−6св12227158 0.1 1019917
12:00−3св11206416 0.0 1020917
15:00−2св1017648 0.0 1021867
18:00−4св816710 0.0 1023736
21:00−6св69785 0.0 1025289
13 марта, сб
сб1300:00−7св458593 0.1 1026150
03:00−6св448594 0.2 1026118
06:00−5св338599 0.1 102689
09:00+1всв1272100 0.1 1027118
12:00+3ююв7117789 0.3 10261082
15:00+4ю697192 0.4 10251138
18:00+2ююв2381100 0.0 1024185
21:00−1св2293100 0.0 102355